When you browse on this site, cookies collect data to enhance your experience and personalize the content and advertising you see.
Visit our Privacy Policy to learn more. By continuing to use the site, you agree to this use of cookies and data.

Meteo pe oră la Sent-Eli

Astăzi, 4 August, Marţi

Timp Temperatura Precipitaţii Vânt Presiune Umiditate
00:00 +26°C° 0 mm 3 m/s 757 mmHg 89%
01:00 +25°C° 0 mm 3 m/s 757 mmHg 90%
02:00 +25°C° 0 mm 3 m/s 757 mmHg 90%
03:00 +25°C° 0.3 mm 3 m/s 757 mmHg 92%
04:00 +25°C° 0.3 mm 3 m/s 757 mmHg 93%
05:00 +24°C° 0.3 mm 3 m/s 757 mmHg 94%
06:00 +26°C° 0 mm 3 m/s 757 mmHg 87%
07:00 +28°C° 0 mm 3 m/s 757 mmHg 81%
08:00 +29°C° 0 mm 3 m/s 757 mmHg 75%
09:00 +31°C° 0.3 mm 3 m/s 757 mmHg 69%
10:00 +33°C° 0.3 mm 3 m/s 757 mmHg 64%
11:00 +34°C° 0.3 mm 4 m/s 757 mmHg 59%
12:00 +33°C° 0.6 mm 4 m/s 757 mmHg 65%
13:00 +32°C° 0.6 mm 4 m/s 756 mmHg 72%
14:00 +30°C° 0.6 mm 4 m/s 755 mmHg 79%
15:00 +30°C° 0.4 mm 4 m/s 755 mmHg 82%
16:00 +29°C° 0.4 mm 4 m/s 755 mmHg 84%
17:00 +28°C° 0.4 mm 5 m/s 755 mmHg 86%
18:00 +28°C° 0.4 mm 5 m/s 755 mmHg 88%
19:00 +27°C° 0.4 mm 5 m/s 756 mmHg 90%
20:00 +27°C° 0.4 mm 5 m/s 757 mmHg 92%
21:00 +27°C° 0.2 mm 5 m/s 757 mmHg 93%
22:00 +26°C° 0.2 mm 5 m/s 757 mmHg 94%
23:00 +26°C° 0.2 mm 5 m/s 757 mmHg 94%

Mâine, 5 August, Miercuri

Timp Temperatura Precipitaţii Vânt Presiune Umiditate
00:00 +26°C° 0.1 mm 5 m/s 757 mmHg 95%
01:00 +26°C° 0.1 mm 5 m/s 756 mmHg 95%
02:00 +26°C° 0.1 mm 4 m/s 756 mmHg 96%
03:00 +25°C° 0 mm 4 m/s 756 mmHg 96%
04:00 +25°C° 0 mm 4 m/s 756 mmHg 96%
05:00 +25°C° 0 mm 4 m/s 756 mmHg 96%
06:00 +26°C° 0 mm 4 m/s 756 mmHg 93%
07:00 +27°C° 0 mm 4 m/s 756 mmHg 89%
08:00 +28°C° 0 mm 4 m/s 757 mmHg 86%
09:00 +30°C° 0 mm 4 m/s 757 mmHg 76%
10:00 +33°C° 0 mm 4 m/s 757 mmHg 66%
11:00 +34°C° 0 mm 4 m/s 757 mmHg 57%
12:00 +34°C° 0.1 mm 5 m/s 756 mmHg 60%
13:00 +33°C° 0.1 mm 5 m/s 755 mmHg 63%
14:00 +33°C° 0.1 mm 5 m/s 755 mmHg 66%
15:00 +32°C° 0 mm 5 m/s 755 mmHg 69%
16:00 +30°C° 0 mm 5 m/s 754 mmHg 72%
17:00 +29°C° 0 mm 5 m/s 754 mmHg 75%
18:00 +29°C° 0 mm 5 m/s 755 mmHg 79%
19:00 +28°C° 0 mm 5 m/s 755 mmHg 82%
20:00 +27°C° 0 mm 5 m/s 756 mmHg 86%
21:00 +27°C° 0.4 mm 5 m/s 756 mmHg 87%
22:00 +27°C° 0.4 mm 5 m/s 756 mmHg 88%
23:00 +27°C° 0.4 mm 5 m/s 757 mmHg 89%

Poimâine, 6 August, Joi

Timp Temperatura Precipitaţii Vânt Presiune Umiditate
00:00 +26°C° 0.1 mm 5 m/s 756 mmHg 90%
01:00 +26°C° 0.1 mm 5 m/s 756 mmHg 91%
02:00 +26°C° 0.1 mm 5 m/s 755 mmHg 92%
03:00 +25°C° 0 mm 5 m/s 755 mmHg 93%
04:00 +25°C° 0 mm 4 m/s 755 mmHg 93%
05:00 +25°C° 0 mm 4 m/s 755 mmHg 94%
06:00 +26°C° 0 mm 4 m/s 756 mmHg 88%
07:00 +27°C° 0 mm 4 m/s 756 mmHg 83%
08:00 +29°C° 0 mm 4 m/s 756 mmHg 77%
09:00 +30°C° 0.1 mm 4 m/s 756 mmHg 71%
10:00 +33°C° 0.1 mm 4 m/s 756 mmHg 65%
11:00 +34°C° 0.1 mm 5 m/s 756 mmHg 58%
12:00 +33°C° 0.8 mm 5 m/s 756 mmHg 64%
13:00 +33°C° 0.8 mm 5 m/s 755 mmHg 69%
14:00 +32°C° 0.8 mm 5 m/s 754 mmHg 75%
15:00 +30°C° 0.1 mm 5 m/s 754 mmHg 75%
16:00 +30°C° 0.1 mm 5 m/s 754 mmHg 76%
17:00 +29°C° 0.1 mm 5 m/s 754 mmHg 77%
18:00 +28°C° 0 mm 4 m/s 755 mmHg 80%
19:00 +27°C° 0 mm 4 m/s 755 mmHg 84%
20:00 +27°C° 0 mm 4 m/s 756 mmHg 87%
21:00 +27°C° 0 mm 4 m/s 756 mmHg 89%
22:00 +26°C° 0 mm 3 m/s 756 mmHg 90%
23:00 +26°C° 0 mm 3 m/s 757 mmHg 91%

7 August, Vineri

Timp Temperatura Precipitaţii Vânt Presiune Umiditate
00:00 +26°C° 0.1 mm 3 m/s 756 mmHg 91%
01:00 +25°C° 0.1 mm 3 m/s 756 mmHg 92%
02:00 +25°C° 0.1 mm 3 m/s 755 mmHg 92%
03:00 +25°C° 0 mm 3 m/s 755 mmHg 92%
04:00 +25°C° 0 mm 3 m/s 755 mmHg 92%
05:00 +25°C° 0 mm 3 m/s 755 mmHg 92%
06:00 +26°C° 0.3 mm 3 m/s 756 mmHg 86%
07:00 +28°C° 0.3 mm 3 m/s 756 mmHg 80%
08:00 +29°C° 0.3 mm 3 m/s 757 mmHg 74%
09:00 +30°C° 0.1 mm 3 m/s 757 mmHg 69%
10:00 +31°C° 0.1 mm 3 m/s 757 mmHg 63%
11:00 +33°C° 0.1 mm 4 m/s 757 mmHg 57%
12:00 +33°C° 0.2 mm 4 m/s 756 mmHg 59%
13:00 +33°C° 0.2 mm 4 m/s 755 mmHg 60%
14:00 +33°C° 0.2 mm 4 m/s 755 mmHg 62%
15:00 +32°C° 0.2 mm 4 m/s 755 mmHg 68%
16:00 +30°C° 0.2 mm 5 m/s 755 mmHg 74%
17:00 +28°C° 0.2 mm 5 m/s 755 mmHg 81%
18:00 +28°C° 0.1 mm 5 m/s 755 mmHg 82%
19:00 +28°C° 0.1 mm 5 m/s 756 mmHg 84%
20:00 +27°C° 0.1 mm 4 m/s 756 mmHg 86%
21:00 +27°C° 0 mm 4 m/s 756 mmHg 87%
22:00 +27°C° 0 mm 4 m/s 757 mmHg 88%
23:00 +27°C° 0 mm 4 m/s 757 mmHg 89%

8 August, Sâmbătă

Timp Temperatura Precipitaţii Vânt Presiune Umiditate
00:00 +27°C° 0.1 mm 4 m/s 756 mmHg 89%
01:00 +26°C° 0.1 mm 5 m/s 756 mmHg 90%
02:00 +26°C° 0.1 mm 5 m/s 755 mmHg 90%
03:00 +26°C° 0 mm 4 m/s 755 mmHg 92%
04:00 +25°C° 0 mm 4 m/s 755 mmHg 93%
05:00 +25°C° 0 mm 4 m/s 756 mmHg 94%
06:00 +26°C° 0.1 mm 4 m/s 756 mmHg 88%
07:00 +27°C° 0.1 mm 4 m/s 757 mmHg 83%
08:00 +29°C° 0.1 mm 4 m/s 757 mmHg 77%
09:00 +30°C° 0.8 mm 4 m/s 757 mmHg 69%
10:00 +33°C° 0.8 mm 4 m/s 757 mmHg 62%
11:00 +35°C° 0.8 mm 4 m/s 757 mmHg 54%
12:00 +34°C° 0.4 mm 5 m/s 756 mmHg 62%
13:00 +33°C° 0.4 mm 5 m/s 755 mmHg 70%
14:00 +32°C° 0.4 mm 5 m/s 755 mmHg 78%
15:00 +30°C° 0.4 mm 5 m/s 755 mmHg 80%
16:00 +29°C° 0.4 mm 5 m/s 755 mmHg 82%
17:00 +29°C° 0.4 mm 4 m/s 755 mmHg 84%
18:00 +28°C° 0 mm 4 m/s 755 mmHg 86%
19:00 +27°C° 0 mm 4 m/s 756 mmHg 88%
20:00 +27°C° 0 mm 4 m/s 757 mmHg 90%
21:00 +27°C° 0 mm 4 m/s 757 mmHg 91%
22:00 +26°C° 0 mm 4 m/s 757 mmHg 91%
23:00 +26°C° 0 mm 4 m/s 757 mmHg 92%

9 August, Duminică

Timp Temperatura Precipitaţii Vânt Presiune Umiditate
00:00 +26°C° 0 mm 5 m/s 756 mmHg 92%
01:00 +26°C° 0 mm 5 m/s 756 mmHg 93%
02:00 +26°C° 0 mm 5 m/s 755 mmHg 93%
03:00 +25°C° 0 mm 5 m/s 755 mmHg 94%
04:00 +25°C° 0 mm 4 m/s 755 mmHg 95%
05:00 +25°C° 0 mm 4 m/s 755 mmHg 96%
06:00 +26°C° 0 mm 4 m/s 756 mmHg 90%
07:00 +28°C° 0 mm 4 m/s 756 mmHg 84%
08:00 +29°C° 0 mm 4 m/s 757 mmHg 78%
09:00 +32°C° 0 mm 5 m/s 757 mmHg 71%
10:00 +33°C° 0 mm 5 m/s 757 mmHg 63%
11:00 +35°C° 0 mm 5 m/s 756 mmHg 56%
12:00 +34°C° 0.2 mm 5 m/s 756 mmHg 61%
13:00 +33°C° 0.2 mm 6 m/s 755 mmHg 66%
14:00 +32°C° 0.2 mm 6 m/s 754 mmHg 72%
15:00 +32°C° 0.3 mm 6 m/s 754 mmHg 74%
16:00 +30°C° 0.3 mm 6 m/s 754 mmHg 77%
17:00 +29°C° 0.3 mm 6 m/s 754 mmHg 79%
18:00 +29°C° 0 mm 5 m/s 754 mmHg 81%
19:00 +28°C° 0 mm 5 m/s 755 mmHg 83%
20:00 +27°C° 0 mm 5 m/s 755 mmHg 84%
21:00 +27°C° 0.1 mm 5 m/s 756 mmHg 86%
22:00 +27°C° 0.1 mm 5 m/s 756 mmHg 87%
23:00 +27°C° 0.1 mm 5 m/s 756 mmHg 89%
Arată mai mult